This demonstration page uses our WeatherBlox Daily Observations layout. Learn more.

Hourly Observations for February 5, 2019

Temp ( °F °C ) Dew Point ( °F °C ) Humidity (%) Winds ( mph kmh ) Pressure ( in mb ) Visibility ( mi km ) Precip ( " mm )
12:54 am 00:54 Clear 10 -12.2 2 -16.7 69 69 NNE 12 19 30.2 1023 10 16.0934 0 0
1:54 am 01:54 Clear 9 -12.8 0 -17.8 66 66 NNE 13 20 30.18 1022 10 16.0934 0 0
2:54 am 02:54 Clear 8 -13.3 -1 -18.3 66 66 NNE 12 19 30.18 1022 10 16.0934 0 0
3:54 am 03:54 Clear 8 -13.3 0 -17.8 69 69 NNE 13 20 30.18 1022 10 16.0934 0 0
4:54 am 04:54 Mostly Cloudy 8 -13.3 0 -17.8 69 69 NNE 14 22 30.18 1022 10 16.0934 0 0
5:54 am 05:54 Cloudy 8 -13.3 1 -17.2 73 73 NNE 14 22 30.19 1022 10 16.0934 0 0
6:54 am 06:54 Cloudy 9 -12.8 1 -17.2 70 70 NNE 12 19 30.17 1022 10 16.0934 0 0
7:54 am 07:54 Cloudy 9 -12.8 1 -17.2 70 70 NNE 14 22 30.16 1021 10 16.0934 0 0
8:54 am 08:54 Cloudy 9 -12.8 1 -17.2 70 70 NE 12 19 30.16 1022 10 16.0934 0 0
9:54 am 09:54 Cloudy 9 -12.8 2 -16.7 73 73 NE 13 20 30.15 1021 10 16.0934 0 0
10:54 am 10:54 Cloudy 11 -11.7 3 -16.1 70 70 NE 7 11 30.15 1021 10 16.0934 0 0
11:05 am 11:05 Cloudy 11 -11.7 3 -16.1 70 70 NE 7 11 30.2 1023 7 11.26538 0 0
11:36 am 11:36 Cloudy with Light Snow 11 -11.7 5 -15 77 77 NE 7 11 30.2 1023 2 3.21868 0 0.0254
11:54 am 11:54 Cloudy with Light Snow 11 -11.7 6 -14.4 81 81 NE 5 7 30.14 1021 1.75 2.816345 0 0.0254
12:15 pm 12:15 Cloudy with Light Snow 11 -11.7 7 -13.9 84 84 NE 6 9 30.18 1022 1.75 2.816345 0 0.0254
12:54 pm 12:54 Cloudy with Light Snow 12 -11.1 7 -13.9 80 80 NNE 6 9 30.11 1020 3 4.82802 0 0.0254
1:01 pm 13:01 Cloudy with Light Snow 12 -11.1 7 -13.9 80 80 NNE 6 9 30.15 1021 1.75 2.816345 0 0.0254
1:19 pm 13:19 Cloudy with Light Snow 13 -10.6 8 -13.3 81 81 N 8 13 30.13 1020 2.5 4.02335 0 0.0254
1:54 pm 13:54 Cloudy with Light Snow 13 -10.6 7 -13.9 77 77 N 8 13 30.07 1018 2 3.21868 0 0.0254
2:11 pm 14:11 Cloudy with Light Snow 13 -10.6 7 -13.9 77 77 NNE 7 11 30.11 1020 3 4.82802 0 0.0254
2:54 pm 14:54 Cloudy with Light Snow 13 -10.6 7 -13.9 77 77 NE 7 11 30.04 1017 3 4.82802 0 0.0254
3:23 pm 15:23 Cloudy 13 -10.6 7 -13.9 77 77 NE 6 9 30.08 1019 7 11.26538 0 0.0254
3:42 pm 15:42 Cloudy 13 -10.6 8 -13.3 81 81 N 6 9 30.09 1019 8 12.87472 0 0.0254
3:54 pm 15:54 Cloudy with Haze 13 -10.6 8 -13.3 81 81 N 6 9 30.06 1018 6 9.65604 0 0.0254
4:10 pm 16:10 Cloudy with Light Snow 14 -10 8 -13.3 77 77 N 7 11 30.1 1019 3 4.82802 0 0.0254
4:54 pm 16:54 Cloudy with Light Snow 14 -10 8 -13.3 77 77 N 7 11 30.06 1018 4 6.43736 0 0.0254
5:54 pm 17:54 Cloudy with Light Snow 13 -10.6 8 -13.3 81 81 N 8 13 30.08 1019 4 6.43736 0 0.0254
6:54 pm 18:54 Cloudy with Light Snow 13 -10.6 8 -13.3 81 81 N 9 15 30.09 1019 7 11.26538 0 0.0254
7:25 pm 19:25 Cloudy 13 -10.6 7 -13.9 77 77 N 12 19 30.12 1020 10 16.0934 0 0.0254
7:54 pm 19:54 Cloudy 14 -10 7 -13.9 73 73 N 7 11 30.09 1019 10 16.0934 0 0.0254
8:54 pm 20:54 Cloudy 14 -10 7 -13.9 73 73 N 7 11 30.09 1019 10 16.0934 0 0
9:54 pm 21:54 Cloudy 14 -10 7 -13.9 73 73 N 10 17 30.11 1020 10 16.0934 0 0
10:19 pm 22:19 Cloudy 14 -10 6 -14.4 71 71 N 10 17 30.14 1021 10 16.0934 0 0
10:54 pm 22:54 Cloudy 14 -10 6 -14.4 71 71 N 13 20 30.09 1019 10 16.0934 0 0
11:54 pm 23:54 Cloudy 14 -10 6 -14.4 71 71 NNE 7 11 30.09 1019 10 16.0934 0 0

Powered by AerisWeather